Погода в Веркудах

Беларусь     55°12′25″N   28°55′04″E
темп.,
°C
ветер,
м/с
пор.,
м/с
влажн.,
%
обл.,
%
осадки,
мм/ч
давл.,
гПа
погр.,
м
8 марта, пн
пн800:00−4з5137721 0.0 1002705
03:00−5зсз6128522 0.0 1003691
06:00−5сз489397 0.2 1004634
09:00−6ссз588097 0.3 1006776
12:00−5ссз577270 0.1 10081061
15:00−3ссз576785 0.2 10101198
18:00−5ссз5873100 0.1 10121050
21:00−7с3882100 0.1 1015523
9 марта, вт
вт900:00−9ссз378971 0.0 1016257
03:00−10сз259538 0.0 1018151
06:00−10сз369539 0.0 1019233
09:00−10ссз368525 0.0 1021370
12:00−6ссз35632 0.0 1021925
15:00−4сз345851 0.0 10221214
18:00−4зсз2468100 0.0 1021311
21:00−6ююз237599 0.0 102258
10 марта, ср
ср1000:00−5зюз4978100 0.0 1023360
03:00−4з41076100 0.0 1022390
06:00−4з4988100 0.0 1023431
09:00−4сз2579100 0.2 1024500
12:00−6в4685100 0.3 1026344
15:00−6в577899 0.3 1027501
18:00−7вюв578274 0.0 1027502
21:00−9вюв588387 0.0 1028437
11 марта, чт
чт1100:00−11юв588399 0.0 1029397
03:00−11юв588691 0.0 1029338
06:00−12юв488783 0.0 1029293
09:00−12юв588886 0.0 1029309
12:00−8ююв588093 0.0 1027404
15:00−4ююв697360 0.0 1025605
18:00−5ююв7117915 0.0 1023674
21:00−6ююв8148757 0.0 1020630
12 марта, пт
пт1200:00−5ююв81682100 0.0 1018807
03:00−5ююв91579100 0.0 1014907
06:00−5ююв101791100 0.4 1009847
09:00−4ю101694100 3.1 10061018
12:00−1ю81495100 2.8 1004786
15:00+1ююз4799100 3.4 1003264
18:00+1юз4799100 2.9 1003275
21:00+1юз3998100 3.7 1005356